[[{"header":{"parameterUnit":"m.s-1","parameterCategory":1,"la1":30.2991,"la2":30.254,"lo1":-89.0895,"lo2":-89.0444,"dy":0.0017,"dx":0.0017,"nx":28,"ny":28,"refTime":"2023-09-20T03:00:00:Z","depth":0,"parameterNumber":2,"parameterNumberName":"U-component_of_WINDS"},"data":[0,0,0,0,0,0,0,0,0,0,0,0,0,0,0,0,0,0,0,0,0,0,0,0,0,0,0,0,0,0,0,0,0,0,0,0,0,0,0,0,0,0,0,0,0,0,0,0,0,0,0,0,0,0,0,0,0,0,-5.0342,-5.0343,0,-5.0454,-5.0455,-5.0456,-5.0396,-5.0393,-5.039,-5.0387,-5.05,-5.0505,-5.0511,0,0,0,0,0,0,0,0,0,0,0,0,0,-5.0073,-5.0079,-5.0342,-5.0343,-5.0344,-5.0454,-5.0455,-5.0457,-5.0397,-5.0393,-5.0389,-5.0386,-5.0498,-5.0505,-5.0512,0,0,0,0,0,0,0,0,0,0,0,0,0,-5.0188,-5.008,-5.0341,-5.0328,-5.0328,-5.0453,-5.0455,-5.0457,-5.0398,-5.0393,-5.0388,-5.0384,-5.0496,-5.0504,-5.0513,-5.0657,0,0,-5.0539,-5.0543,0,0,0,0,0,0,0,0,-5.0182,-5.0198,-5.0328,-5.0329,-5.0329,-5.0406,-5.0402,-5.0524,-5.0399,-5.0371,-5.0387,-5.0382,-5.0472,-5.0483,-5.0513,-5.0662,-5.0667,-5.054,-5.0545,-5.0549,-5.0552,0,0,0,0,0,0,0,-5.0174,-5.0193,-5.0386,-5.033,-5.0331,-5.0315,-5.0327,-5.0425,-5.0446,-5.0373,-5.0369,-5.0383,-5.0471,-5.0505,-5.0516,-5.0669,-5.054,-5.0548,-5.0553,-5.0556,-5.094,-5.0945,0,0,0,0,0,0,-5.0167,-5.0187,-5.0382,-5.0389,-5.0243,-5.0324,-5.0336,-5.0386,-5.0444,-5.0449,-5.0387,-5.038,-5.0493,-5.0506,-5.0519,-5.069,-5.0549,-5.0557,-5.0562,-5.0935,-5.0941,-5.0947,0,0,0,0,0,0,-5.0161,-5.0185,-5.0378,-5.0287,-5.031,-5.0333,-5.039,-5.0391,-5.0424,-5.0455,-5.0458,-5.0418,-5.0489,-5.0507,-5.0623,-5.0693,-5.0561,-5.0569,-5.0929,-5.0937,-5.0944,-5.1033,0,0,0,0,0,0,-5.0154,-5.0183,-5.0239,-5.0289,-5.0315,-5.048,-5.0394,-5.0396,-5.044,-5.0432,-5.0484,-5.0489,-5.0487,-5.061,-5.0632,-5.0702,-5.0576,-5.0923,-5.0933,-5.0942,-5.1024,-5.1043,-5.1059,0,0,0,0,0,-5.0145,-5.0259,-5.0242,-5.0266,-5.0385,-5.0484,-5.0499,-5.0496,-5.0446,-5.0501,-5.0521,-5.0487,-5.0683,-5.0623,-5.0646,-5.0721,-5.0919,-5.093,-5.0941,-5.1016,-5.1039,-5.1058,0,0,0,0,0,0,-5.0216,-5.0266,-5.0247,-5.0381,-5.0429,-5.0474,-5.0543,-5.0521,-5.0583,-5.0573,-5.0566,-5.0578,-5.0698,-5.0722,-5.0654,-5.0863,-5.0793,-5.0809,-5.0842,-5.0864,-5.0881,-5.087,-5.0583,0,0,0,0,0,-5.0248,-5.0325,-5.0364,-5.0479,-5.0504,-5.052,-5.0563,-5.0557,-5.0605,-5.0625,-5.0653,-5.0701,-5.0773,-5.0821,-5.0889,-5.1029,-5.1038,-5.1092,-5.1109,-5.1123,-5.1136,-5.1209,-5.1233,-5.0983,-5.0983,-5.0983,0,0,-5.0313,-5.035,-5.0399,-5.0494,-5.053,-5.0609,-5.0537,-5.0624,-5.0681,-5.0638,-5.0748,-5.0771,-5.0825,-5.0952,-5.101,-5.0976,-5.1208,-5.1138,-5.1149,-5.1154,-5.1223,-5.1247,-5.1268,-5.0991,-5.099,-5.0988,0,0,-5.0471,-5.0509,-5.0607,-5.0645,-5.0702,-5.0712,-5.0736,-5.0785,-5.0798,-5.091,-5.0878,-5.0947,-5.1072,-5.1111,-5.1147,-5.1322,-5.1292,-5.1345,-5.1433,-5.1505,-5.1524,-5.1542,-5.16,-5.1622,-5.1358,-5.1359,-5.1359,0,-5.0545,-5.0663,-5.066,-5.0749,-5.0791,-5.0757,-5.0856,-5.0893,-5.0969,-5.0998,-5.0959,-5.1115,-5.1149,-5.1284,-5.1326,-5.1359,-5.1383,-5.1336,-5.1522,-5.1539,-5.1555,-5.1611,-5.1634,-5.1364,-5.1364,-5.1363,-5.1363,0,-5.0749,-5.0831,-5.0904,-5.0978,-5.1029,-5.1122,-5.1133,-5.1185,-5.1175,-5.1189,-5.1302,-5.1342,-5.1417,-5.145,-5.1441,-5.1584,-5.156,-5.1523,-5.1451,-5.1585,-5.1637,-5.1659,-5.1372,-5.137,-5.1369,-5.1367,0,0,-5.0951,-5.1024,-5.105,-5.1082,-5.1143,-5.1206,-5.1299,-5.1372,-5.1415,-5.147,-5.1545,-5.1653,-5.1618,-5.1659,-5.1655,-5.1719,-5.185,-5.1673,-5.1674,-5.17,-5.2006,-5.203,-5.2056,-5.1834,-5.1838,-5.1841,-5.2,0,-5.111,-5.127,-5.1271,-5.1418,-5.1493,-5.1463,-5.1543,-5.1589,-5.1605,-5.1671,-5.1689,-5.1764,-5.1715,-5.1739,-5.1801,-5.1821,-5.1911,-5.1811,-5.19,-5.1903,-5.1882,-5.2083,-5.2109,-5.2257,-5.2021,-5.2025,-5.2027,0,-5.1315,-5.1376,-5.1531,-5.158,-5.1611,-5.1683,-5.175,-5.1814,-5.1865,-5.1872,-5.1919,-5.1906,-5.1998,-5.1929,-5.2055,-5.1986,-5.2024,-5.204,-5.2046,-5.205,-5.197,-5.2088,-5.2305,-5.2325,-5.206,-5.2058,-5.2055,0,-5.1442,-5.1563,-5.167,-5.17,-5.1761,-5.1811,-5.1839,-5.1886,-5.193,-5.199,-5.2018,-5.2088,-5.2125,-5.2179,-5.2184,-5.2134,-5.2311,-5.2242,-5.2317,-5.2317,-5.2351,-5.2348,-5.2572,-5.2384,-5.2384,-5.2383,-5.2383,0,-5.1616,-5.171,-5.1728,-5.1793,-5.1898,-5.19,-5.2003,-5.2027,-5.2069,-5.2138,-5.2119,-5.2183,-5.2189,-5.2256,-5.2261,-5.2363,-5.2381,-5.2388,-5.2387,-5.2387,-5.2386,-5.2408,-5.2396,-5.2389,-5.2388,-5.2387,-5.2386,0,-5.1772,-5.1788,-5.1903,-5.1952,-5.1966,-5.2041,-5.2083,-5.2145,-5.2161,-5.2248,-5.2269,-5.2293,-5.2371,-5.2383,-5.2475,-5.2478,-5.2599,-5.2591,-5.2581,-5.2578,-5.2651,-5.2642,-5.2893,-5.2925,-5.2721,-5.2723,-5.2725,0,-5.1879,-5.1951,-5.2009,-5.2054,-5.2084,-5.2157,-5.2202,-5.2207,-5.2255,-5.2319,-5.2373,-5.2449,-5.2509,-5.2635,-5.266,-5.273,-5.272,-5.2803,-5.273,-5.2727,-5.2716,-5.2709,-5.2715,-5.2815,-5.2818,-5.2819,-5.2821,0,-5.2067,-5.2072,-5.2138,-5.2207,-5.2261,-5.2316,-5.2368,-5.2406,-5.2417,-5.2472,-5.2551,-5.2598,-5.2692,-5.2767,-5.2836,-5.2864,-5.2844,-5.2845,-5.2865,-5.2862,-5.2852,-5.2854,-5.2615,-5.2838,-5.2836,-5.2835,-5.2834,-5.2833,-5.2199,-5.2261,-5.231,-5.2384,-5.2424,-5.2473,-5.2533,-5.2557,-5.2624,-5.27,-5.27,-5.2786,-5.2836,-5.2927,-5.296,-5.3027,-5.2999,-5.303,-5.3037,-5.3043,-5.3048,-5.2847,-5.304,-5.304,-5.3039,-5.3039,-5.3039,0,-5.2382,-5.2413,-5.2481,-5.2554,-5.2612,-5.2591,-5.2647,-5.2696,-5.2773,-5.2821,-5.2881,-5.2972,-5.3045,-5.3077,-5.3149,-5.3196,-5.3188,-5.3214,-5.3208,-5.3214,-5.307,-5.3043,-5.3219,-5.3219,-5.3219,-5.3219,-5.3219,-5.3219,-5.2483,-5.2585,-5.2596,-5.2718,-5.2748,-5.2833,-5.2866,-5.2911,-5.2949,-5.3051,-5.3112,-5.3133,-5.3175,-5.3249,-5.3315,-5.3322,-5.3348,-5.3377,-5.338,-5.3243,-5.3225,-5.3207,-5.3181,-5.3383,-5.3384,-5.3518,-5.3519,-5.352]},{"header":{"parameterUnit":"m.s-1","parameterCategory":1,"la1":30.2991,"la2":30.254,"lo1":-89.0895,"lo2":-89.0444,"dy":0.0017,"dx":0.0017,"nx":28,"ny":28,"refTime":"2023-09-20T03:00:00:Z","depth":0,"parameterNumber":3,"parameterNumberName":"V-component_of_WINDS"},"data":[0,0,0,0,0,0,0,0,0,0,0,0,0,0,0,0,0,0,0,0,0,0,0,0,0,0,0,0,0,0,0,0,0,0,0,0,0,0,0,0,0,0,0,0,0,0,0,0,0,0,0,0,0,0,0,0,0,0,1.6401,1.6401,0,1.6401,1.6401,1.6401,1.6334,1.6332,1.633,1.6329,1.6327,1.6329,1.633,0,0,0,0,0,0,0,0,0,0,0,0,0,1.6343,1.6345,1.6401,1.6401,1.6401,1.6401,1.6401,1.6401,1.6334,1.6332,1.633,1.6328,1.6327,1.6329,1.6331,0,0,0,0,0,0,0,0,0,0,0,0,0,1.6358,1.6345,1.6401,1.6368,1.6365,1.6401,1.6401,1.6401,1.6335,1.6332,1.6329,1.6327,1.6326,1.6329,1.6331,1.6398,0,0,1.6338,1.6339,0,0,0,0,0,0,0,0,1.6358,1.636,1.6373,1.637,1.6367,1.6365,1.638,1.64,1.6335,1.6346,1.6329,1.6326,1.6342,1.6343,1.6348,1.6398,1.6398,1.6338,1.634,1.6341,1.6342,0,0,0,0,0,0,0,1.6357,1.636,1.6401,1.6373,1.6369,1.6353,1.6352,1.6383,1.6359,1.6345,1.634,1.6341,1.634,1.6346,1.6348,1.6398,1.6338,1.634,1.6342,1.6343,1.6504,1.6507,0,0,0,0,0,0,1.636,1.636,1.6401,1.6401,1.6356,1.6356,1.6355,1.6368,1.6358,1.6354,1.6343,1.6338,1.6344,1.6345,1.6348,1.6426,1.6341,1.6343,1.6345,1.6501,1.6505,1.6508,0,0,0,0,0,0,1.6359,1.6364,1.6401,1.6379,1.6382,1.636,1.6375,1.6369,1.6376,1.6357,1.6352,1.6355,1.6342,1.6344,1.6386,1.6425,1.6344,1.6346,1.6498,1.6502,1.6506,1.6582,0,0,0,0,0,0,1.6358,1.6365,1.639,1.638,1.6384,1.644,1.6377,1.6371,1.638,1.6373,1.6366,1.6362,1.634,1.6383,1.6389,1.6426,1.6348,1.6494,1.65,1.6505,1.6576,1.6589,1.6599,0,0,0,0,0,1.6356,1.6411,1.6391,1.6397,1.6415,1.6442,1.6444,1.6417,1.6384,1.6409,1.6397,1.6363,1.642,1.6388,1.6394,1.6433,1.6492,1.6498,1.6504,1.6571,1.6586,1.6599,0,0,0,0,0,0,1.6424,1.6409,1.6387,1.644,1.6443,1.6431,1.6461,1.6434,1.6446,1.6438,1.6404,1.6403,1.6451,1.6446,1.6411,1.6498,1.645,1.6458,1.6499,1.6513,1.6524,1.6524,1.635,0,0,0,0,0,1.6446,1.6469,1.6454,1.6503,1.6506,1.6484,1.6494,1.6474,1.6475,1.6476,1.6467,1.6469,1.6488,1.65,1.6516,1.6576,1.6574,1.6606,1.6618,1.6627,1.6634,1.6665,1.668,1.6529,1.6529,1.6528,0,0,1.6489,1.6484,1.6501,1.6516,1.6516,1.6541,1.6485,1.6513,1.6532,1.648,1.6519,1.6513,1.6513,1.6565,1.6587,1.6562,1.6676,1.6636,1.6643,1.6644,1.6673,1.6688,1.67,1.6533,1.6532,1.6532,0,0,1.6582,1.6581,1.6621,1.6623,1.6624,1.6609,1.6619,1.6611,1.6606,1.6645,1.6607,1.6628,1.6661,1.6663,1.6668,1.6765,1.6734,1.6771,1.6831,1.6862,1.6874,1.6884,1.6918,1.693,1.6778,1.6779,1.6779,0,1.6636,1.6672,1.6645,1.6677,1.6685,1.6641,1.6681,1.6684,1.669,1.6697,1.667,1.6711,1.6708,1.6759,1.6783,1.6789,1.6799,1.6771,1.6874,1.6885,1.6894,1.6925,1.6938,1.6783,1.6783,1.6782,1.6782,0,1.6739,1.6765,1.6798,1.6806,1.6818,1.6854,1.6832,1.6848,1.6827,1.6816,1.6856,1.6852,1.6867,1.6878,1.6858,1.6927,1.6912,1.688,1.6831,1.6913,1.6942,1.6954,1.6789,1.6788,1.6787,1.6785,0,0,1.6871,1.6866,1.6878,1.6881,1.6881,1.69,1.6935,1.695,1.6964,1.6971,1.6999,1.7029,1.7,1.7007,1.6986,1.7014,1.7091,1.6979,1.6979,1.6999,1.7166,1.7189,1.7204,1.7071,1.7073,1.7075,1.7166,0,1.696,1.7019,1.6996,1.7057,1.7081,1.7041,1.7071,1.7074,1.7065,1.7084,1.7074,1.7096,1.7057,1.706,1.7086,1.7076,1.7123,1.7069,1.7096,1.7097,1.7095,1.7219,1.7242,1.7328,1.7177,1.7179,1.7181,0,1.707,1.7083,1.7146,1.7143,1.7152,1.7179,1.7192,1.7211,1.7214,1.7206,1.7215,1.7189,1.7223,1.7176,1.7222,1.7186,1.7196,1.7193,1.7196,1.7195,1.7142,1.7221,1.7355,1.7367,1.7199,1.7197,1.7196,0,1.7159,1.7192,1.7234,1.7239,1.7236,1.7256,1.7256,1.7256,1.7268,1.7279,1.7286,1.7302,1.731,1.7322,1.7302,1.7269,1.7351,1.7302,1.7344,1.7345,1.7361,1.736,1.7497,1.7371,1.7371,1.737,1.737,0,1.726,1.73,1.7274,1.73,1.7344,1.7319,1.7363,1.7358,1.736,1.7384,1.7351,1.7374,1.7346,1.7367,1.7351,1.7392,1.7396,1.739,1.7385,1.7392,1.7392,1.7396,1.7389,1.7374,1.7373,1.7372,1.7372,0,1.7365,1.735,1.7393,1.7388,1.7388,1.742,1.7415,1.7439,1.7429,1.746,1.7466,1.745,1.7473,1.7455,1.7477,1.7466,1.752,1.7507,1.7519,1.7515,1.7557,1.7553,1.77,1.7718,1.7582,1.7583,1.7584,0,1.7429,1.7459,1.7458,1.7472,1.7474,1.7498,1.7509,1.7487,1.75,1.7507,1.753,1.7551,1.7565,1.7604,1.7594,1.7612,1.7598,1.7649,1.76,1.7607,1.7597,1.7595,1.7598,1.7658,1.7659,1.7661,1.7662,0,1.7544,1.7536,1.7554,1.7571,1.7586,1.7598,1.7607,1.7621,1.7597,1.7614,1.7638,1.765,1.7674,1.7694,1.7709,1.7708,1.7681,1.7678,1.7688,1.7694,1.7699,1.7696,1.7544,1.7674,1.7672,1.7672,1.7671,1.767,1.7629,1.7655,1.7658,1.768,1.7685,1.7695,1.7718,1.7711,1.7731,1.7749,1.7734,1.7763,1.7767,1.7783,1.7786,1.7808,1.7787,1.7802,1.7806,1.7809,1.7815,1.7698,1.7811,1.781,1.781,1.781,1.7809,0,1.7742,1.7743,1.7764,1.7778,1.7796,1.7772,1.7781,1.7797,1.7823,1.7829,1.7845,1.7873,1.7893,1.7886,1.7905,1.7923,1.7912,1.7929,1.7926,1.7926,1.7833,1.7822,1.7938,1.7938,1.7938,1.7938,1.7938,1.7938,1.7802,1.7843,1.7836,1.788,1.7881,1.7909,1.7917,1.7926,1.793,1.7963,1.7981,1.7977,1.7978,1.7996,1.8014,1.8011,1.8019,1.804,1.8033,1.7946,1.7933,1.7921,1.791,1.8043,1.8043,1.8124,1.8125,1.8126]}]]